Regional Weather Roundup
Issued by NWS

Home | Current Version | Previous Version | Text Only | Print | Product List | Glossary On
Versions: 1 2 3 4 5 6 7 8 9 10 11 12 13 14 15 16 17 18 19 20 21 22 23 24 25 26 27 28 29 30 31 32 33 34 35 36 37 38 39 40 41 42 43 44 45 46 47 48 49 50
000
ASUS43 KMKX 191721
RWRWI

WISCONSIN REGIONAL WEATHER ROUNDUP
NATIONAL WEATHER SERVICE MILWAUKEE/SULLIVAN WI
1100 AM CST FRI JAN 19 2018

NOTE: "FAIR" INDICATES FEW OR NO CLOUDS BELOW 12,000 FEET WITH NO
SIGNIFICANT WEATHER AND/OR OBSTRUCTIONS TO VISIBILITY.

WIZ001-002-006>008-014>016-023>028-191800-
NORTHWEST WISCONSIN

CITY           SKY/WX    TMP DP  RH WIND       PRES   REMARKS
SUPERIOR ARPT  FAIR      35  28  75 SW10      29.49F WCI  27
ASHLAND        NOT AVBL
HAYWARD        FAIR      34  24  67 S8        29.54F WCI  27
SIREN          FAIR      35  27  74 CALM      29.54F
CUMBERLAND     FAIR      30  23  74 S8        29.56F WCI  23
RICE LAKE      FAIR      31  26  79 SE9       29.59F WCI  23
CHETEK         FAIR      32  25  74 S5        29.59S WCI  27
LADYSMITH      FAIR      31  24  77 S7        29.61S WCI  24
EAU CLAIRE     FAIR      33  25  72 S5        29.61F WCI  29
MENOMONIE      FAIR      34  25  70 S7        29.62R WCI  28
NEW RICHMOND   FAIR      35  24  66 S9        29.57F WCI  27
OSCEOLA        FAIR      35  26  71 S8        29.59F WCI  28
$$

WIZ003>005-009-010-017-018-191800-
NORTH CENTRAL WISCONSIN

CITY           SKY/WX    TMP DP  RH WIND       PRES   REMARKS
MANITOWISH WTR FAIR      31  26  80 SW8       29.55R WCI  24
ARBOR VITAE    FAIR      32  28  84 S6        29.56F WCI  26
WOODRUFF       FAIR      32  28  84 S6        29.56F WCI  26
RHINELANDER    FAIR      30  23  75 SW13      29.58S WCI  20
EAGLE RIVER    FAIR      30  23  74 SW8       29.55F WCI  23
LAND O LAKES   FAIR      31  26  81 SW7       29.56F WCI  24
PHILLIPS       FAIR      31  24  74 SW7       29.57S WCI  24
TOMAHAWK       FAIR      29  22  76 S3        29.60S
MEDFORD        FAIR      29  23  78 S12       29.61R WCI  19
MERRILL        FAIR      29  23  76 SW5       29.62S WCI  24
$$

WIZ029-030-035-036-043>047-191800-
CENTRAL WISCONSIN

CITY           SKY/WX    TMP DP  RH WIND       PRES   REMARKS
WAUSAU         FAIR      29  23  78 S7        29.61F WCI  22
MOSINEE        CLOUDY    30  25  80 S10       29.64F WCI  21
MARSHFIELD     FAIR      31  23  72 SW12      29.63F WCI  22
STEVENS POINT  FAIR      30  22  72 S9        29.66F WCI  22
WAUPACA        FAIR      35  24  63 SW10      29.68F WCI  27
WAUTOMA        FAIR      34  23  64 SW12      29.70F WCI  25
WISC RAPIDS    FAIR      31  21  66 SW10      29.67F WCI  22
CAMP DOUGLAS   CLOUDY    36  25  64 SW7       29.68F WCI  30
$$

WIZ011>013-019>022-031-037>040-048>050-191800-
NORTHEAST WISCONSIN

CITY           SKY/WX    TMP DP  RH WIND       PRES   REMARKS
ANTIGO         FAIR      28  23  79 SW6       29.60F WCI  22
SHAWANO        FAIR      35  24  65 SW10      29.64F WCI  27
OCONTO         FAIR      32  22  67 SW10G18   29.66F WCI  24
STURGEON BAY   FAIR      33  23  66 S17       29.66F WCI  22
GREEN BAY      FAIR      30  22  72 SW14      29.68F WCI  19
MANITOWOC      FAIR      32  24  72 S6        29.73S WCI  26
APPLETON       PTSUNNY   30  21  69 SW15      29.67F WCI  19
CLINTONVILLE   FAIR      32  23  69 SW9       29.66F WCI  24
OSHKOSH        FAIR      31  23  72 SW16G22   29.71F WCI  20
$$

WIZ032>034-041-042-053>061-191800-
SOUTHWEST WISCONSIN

CITY           SKY/WX    TMP DP  RH WIND       PRES   REMARKS
LA CROSSE      FAIR      33  25  72 S12       29.70F WCI  24
SPARTA         FAIR      35  25  68 SW7       29.70F WCI  29
VIROQUA        FAIR      33  27  77 SW15      29.70F WCI  23
BOSCOBEL       FAIR      37  24  59 SW12      29.75F WCI  29
PRAIRIE DU CHI FAIR      35  23  59 SW7       29.76S WCI  30
PLATTEVILLE    FAIR      33  26  75 S15       29.78F WCI  23
$$

WIZ056-057-062-063-064-067-068-191800-
SOUTH CENTRAL WISCONSIN

CITY           SKY/WX    TMP DP  RH WIND       PRES   REMARKS
REEDSBURG      FAIR      33  23  67 SW12      29.72F WCI  25
BARABOO/DELLS  FAIR      33  23  67 SW12G18   29.72S WCI  25
LONE ROCK      FAIR      35  24  64 SW10      29.76F WCI  27
MINERAL POINT  FAIR      34  28  80 S14       29.75F WCI  24
MADISON        CLOUDY    33  23  66 SW10G20   29.76F WCI  25
MIDDLETON      FAIR      36  24  62 SW13G18   29.75F WCI  28
WATERTOWN      FAIR      32  25  73 S10G16    29.77F WCI  24
MONROE         FAIR      32  23  69 S15G22    29.77F WCI  22
JANESVILLE     CLOUDY    36  25  64 SW14      29.81F WCI  27
$$

WIZ051-052-058>065-066-070>072-191800-
SOUTHEAST WISCONSIN

CITY           SKY/WX    TMP DP  RH WIND       PRES   REMARKS
MILWAUKEE      PTSUNNY   36  23  59 SW20G28   29.79F WCI  25
WAUKESHA       SUNNY     34  21  60 SW10G17   29.79F WCI  26
MILWAUKEE/TIMM SUNNY     34  19  55 SW15      29.79F WCI  24
RACINE         FAIR      35  23  61 SW15G24   29.82F WCI  25
BURLINGTON     FAIR      35  22  61 SW20      29.80F WCI  23
KENOSHA        FAIR      36  22  56 SW14G24   29.82F WCI  27
FOND DU LAC    FAIR      32  22  66 SW14G23   29.72F WCI  22
SHEBOYGAN      FAIR      32  24  72 SW14      29.73F WCI  22
WEST BEND      FAIR      34  23  64 W8        29.74F WCI  27
JUNEAU         FAIR      31  23  72 S12       29.76F WCI  22
$$

LSZ147-162-191800-
LAKE SUPERIOR

STATION/POSITION TIME  TEMP    WIND        PRES    WAVE
                       AIR SEA DIR/SP/G            HT/PER
                 (UTC) (F)     (DEG/KT/KT) (MB)    (FT/S)
DEVILS ISLAND    1700   33     220/  6/  8  997.6F
SAXON HARBOR     1630   41     200/ 11/ 17  998.6R
$$

LMZ867-665-643>646-191800-
LAKE MICHIGAN

STATION/POSITION TIME  TEMP    WIND        PRES    WAVE
                       AIR SEA DIR/SP/G            HT/PER
                 (UTC) (F)     (DEG/KT/KT) (MB)    (FT/S)
NORTHPORT PIER   1643   34     200/ 13/ 26 1004.4F
KEWAUNEE LAKESHO 1654   29     190/  9/ 12 1005.5S
SHEBOYGAN LAKESH 1700   33     210/ 13/ 15 1007.5F
PORT WASHINGTON  1700   37     240/  5/ 16 1008.5
MILWAUKEE LAKESH 1700   35     230/ 18/ 20   N/A
KENOSHA   LAKESH 1700   37     220/ 11/ 17 1010.2
$$

TC  - TEMPERATURE IN CELSIUS
VSB - VISIBILITY IN STATUTE MILES
WCI - WIND CHILL INDEX
HX  - HEAT INDEX





USA.gov is the U.S. government's official web portal to all federal, state and local government web resources and services.